Elefsis, Greece

5:57 AM EET on February 12, 2016 (GMT +0200)
Elefsis Air Base

Weather History for LGEL - March, 2013

Change the Weather History Date:

Sunday, March 17, 2013

  Actual Average Record
Temperature  
Mean Temperature 48 °F -  
Max Temperature 55 °F 63 °F - ()
Min Temperature 41 °F 46 °F - ()
Degree Days  
Heating Degree Days 17    
Moisture  
Dew Point 32 °F    
Average Humidity 56    
Maximum Humidity 71    
Minimum Humidity 33    
Precipitation  
Precipitation 0.00 in - - ()
Sea Level Pressure  
Sea Level Pressure 30.08 in    
Wind  
Wind Speed 4 mph ()    
Max Wind Speed 9 mph    
Max Gust Speed -    
Visibility 6.2 miles    
Events      
T = Trace of Precipitation, MM = Missing Value Source: Averaged Metar Reports

Daily Weather History Graph

Daily Weather History Graph

Search for Another Location

Airport or City:

Trip Planner

Search our weather history database for the weather conditions in past years. The results will help you decide how hot, cold, wet, or windy it might be!

Date:

Astronomy

Mar. 17, 2013 Rise Set
Actual Time 6:33 AM EET 6:34 PM EET
Civil Twilight 6:07 AM EET 7:01 PM EET
Nautical Twilight 5:37 AM EET 7:31 PM EET
Astronomical Twilight 5:06 AM EET 8:02 PM EET
Moon 9:37 AM EET (3/17) No Moon Set
Length of Visible Light 12h 53m
Length of Day
12h 00m
Waxing Crescent, 29% of the Moon is Illuminated
Mar 17
Waxing Crescent
Mar 19
First Quarter
Mar 27
Full
Apr 3
Last Quarter
Apr 10
New

Hourly Weather History & Observations

Time (EET) Temp. Windchill Dew Point Humidity Pressure Visibility Wind Dir Wind Speed Gust Speed Precip Events Conditions
12:50 AM 44.6 °F 42.2 °F 35.6 °F 71% 29.98 in 6.2 mi WNW 4.6 mph - N/A   Scattered Clouds
1:50 AM 42.8 °F - 33.8 °F 70% 30.01 in 6.2 mi Calm Calm - N/A   Scattered Clouds
2:50 AM 44.6 °F - 35.6 °F 71% 30.01 in 6.2 mi Calm Calm - N/A   Mostly Cloudy
4:50 AM 42.8 °F 39.3 °F 33.8 °F 70% 30.04 in 6.2 mi North 5.8 mph - N/A   Partly Cloudy
5:20 AM 42.8 °F - 33.8 °F 70% 30.04 in 6.2 mi Calm Calm - N/A   Partly Cloudy
5:50 AM 42.8 °F - 33.8 °F 70% 30.04 in 6.2 mi Calm Calm - N/A   Partly Cloudy
6:20 AM 42.8 °F - 33.8 °F 70% 30.04 in 6.2 mi Calm Calm - N/A   Partly Cloudy
6:50 AM 42.8 °F 38.6 °F 33.8 °F 70% 30.06 in 6.2 mi NW 6.9 mph - N/A   Partly Cloudy
7:20 AM 44.6 °F 41.4 °F 33.8 °F 66% 30.06 in 6.2 mi NW 5.8 mph - N/A   Partly Cloudy
7:50 AM 44.6 °F 43.1 °F 33.8 °F 66% 30.06 in 6.2 mi Variable 3.5 mph - N/A   Partly Cloudy
8:20 AM 46.4 °F 45.2 °F 33.8 °F 62% 30.06 in 6.2 mi Variable 3.5 mph - N/A   Partly Cloudy
8:50 AM 48.2 °F - 33.8 °F 58% 30.09 in 6.2 mi NNW 9.2 mph - N/A   Scattered Clouds
9:20 AM 48.2 °F - 33.8 °F 58% 30.09 in 6.2 mi North 8.1 mph - N/A   Scattered Clouds
9:50 AM 48.2 °F - 33.8 °F 58% 30.09 in 6.2 mi NW 6.9 mph - N/A   Scattered Clouds
10:20 AM 50.0 °F - 33.8 °F 54% 30.09 in 6.2 mi NNW 8.1 mph - N/A   Scattered Clouds
10:50 AM 48.2 °F - 32.0 °F 54% 30.09 in 6.2 mi North 6.9 mph - N/A   Scattered Clouds
11:20 AM 51.8 °F - 32.0 °F 47% 30.09 in 6.2 mi North 5.8 mph - N/A   Scattered Clouds
11:50 AM 53.6 °F - 32.0 °F 44% 30.09 in 6.2 mi NNW 5.8 mph - N/A   Scattered Clouds
12:20 PM 51.8 °F - 30.2 °F 44% 30.09 in 6.2 mi Variable 3.5 mph - N/A   Scattered Clouds
12:50 PM 53.6 °F - 33.8 °F 47% 30.09 in 6.2 mi SSW 4.6 mph - N/A   Scattered Clouds
1:20 PM 51.8 °F - 32.0 °F 47% 30.09 in 6.2 mi SSW 6.9 mph - N/A   Scattered Clouds
1:50 PM 53.6 °F - 32.0 °F 44% 30.09 in 6.2 mi South 4.6 mph - N/A   Scattered Clouds
2:20 PM 55.4 °F - 30.2 °F 38% 30.09 in 6.2 mi Calm Calm - N/A   Scattered Clouds
2:50 PM 55.4 °F - 32.0 °F 41% 30.09 in 6.2 mi SSE 5.8 mph - N/A   Scattered Clouds
3:20 PM 53.6 °F - 28.4 °F 38% 30.09 in 6.2 mi South 8.1 mph - N/A   Scattered Clouds
3:50 PM 53.6 °F - 33.8 °F 47% 30.06 in 6.2 mi SE 5.8 mph - N/A   Scattered Clouds
4:20 PM 55.4 °F - 28.4 °F 36% 30.06 in 6.2 mi SE 5.8 mph - N/A   Scattered Clouds
4:50 PM 55.4 °F - 28.4 °F 36% 30.06 in 6.2 mi SSE 4.6 mph - N/A   Scattered Clouds
5:20 PM 55.4 °F - 26.6 °F 33% 30.06 in 6.2 mi SSW 6.9 mph - N/A   Scattered Clouds
5:50 PM 53.6 °F - 26.6 °F 35% 30.06 in 6.2 mi SW 8.1 mph - N/A   Scattered Clouds
6:20 PM 51.8 °F - 26.6 °F 38% 30.06 in 6.2 mi Variable 3.5 mph - N/A   Scattered Clouds
6:50 PM 50.0 °F - 33.8 °F 54% 30.09 in 6.2 mi East 5.8 mph - N/A   Partly Cloudy
7:20 PM 48.2 °F - 32.0 °F 54% 30.09 in 6.2 mi East 5.8 mph - N/A   Partly Cloudy
7:50 PM 48.2 °F - 32.0 °F 54% 30.09 in 6.2 mi East 4.6 mph - N/A   Partly Cloudy
8:20 PM 44.6 °F 42.2 °F 33.8 °F 66% 30.09 in 6.2 mi East 4.6 mph - N/A   Partly Cloudy
8:50 PM 44.6 °F - 32.0 °F 61% 30.12 in 6.2 mi Calm Calm - N/A   Partly Cloudy
9:20 PM 42.8 °F - 32.0 °F 66% 30.12 in 6.2 mi Calm Calm - N/A   Partly Cloudy
9:50 PM 42.8 °F - 32.0 °F 66% 30.15 in 6.2 mi Calm Calm - N/A   Partly Cloudy
10:20 PM 41.0 °F - 32.0 °F 70% 30.15 in 6.2 mi Calm Calm - N/A   Partly Cloudy
10:50 PM 41.0 °F - 32.0 °F 70% 30.15 in 6.2 mi Calm Calm - N/A   Partly Cloudy
11:50 PM 41.0 °F - 32.0 °F 70% 30.15 in 6.2 mi Calm Calm - N/A   Partly Cloudy